FW9036 Weather Reports


time (UTC)temp
C
wind
direction
speed
KPH
gust
KPH
rain 1hr
cm
rain 24hr
cm
rain mn
cm
humidity
%
barometer
mb
20260508100444 23 90 0.0 3.2 0.00 0.00 0.00 90 1014.8
20260508095939 23 8 0.0 1.6 0.00 0.00 0.00 90 1014.9
20260508095438 23 26 0.0 3.2 0.00 0.00 0.00 90 1014.6
20260508094934 23 81 0.0 0.0 0.00 0.00 0.00 89 1014.4
20260508094431 23 0 0.0 0.0 0.00 0.00 0.00 89 1014.3
20260508093928 23 0 0.0 0.0 0.00 0.00 0.00 89 1014.2
20260508093425 23 352 0.0 0.0 0.00 0.00 0.00 89 1014.2
20260508092923 23 15 0.0 0.0 0.00 0.00 0.00 89 1014.5
20260508092421 24 279 0.0 0.0 0.00 0.00 0.00 89 1014.5
20260508091919 24 74 0.0 0.0 0.00 0.00 0.00 89 1014.4
20260508091415 24 15 0.0 3.2 0.00 0.00 0.00 88 1014.4
20260508090912 24 0 0.0 4.8 0.00 0.00 0.00 88 1014.3
20260508090411 24 334 1.6 4.8 0.00 0.00 0.00 88 1014.1
20260508085911 24 26 0.0 3.2 0.00 0.00 0.00 88 1014.1
20260508085409 24 0 0.0 1.6 0.00 0.00 0.00 88 1014.0
20260508084905 24 36 3.2 4.8 0.00 0.00 0.00 88 1014.0
20260508084402 24 0 0.0 3.2 0.00 0.00 0.00 87 1014.5
20260508083900 24 0 0.0 3.2 0.00 0.00 0.00 87 1014.3
20260508083357 24 270 0.0 4.8 0.00 0.00 0.00 87 1014.4
20260508082856 24 352 0.0 3.2 0.00 0.00 0.00 87 1014.1
20260508082354 24 8 0.0 0.0 0.00 0.00 0.00 87 1014.1
20260508081852 24 324 0.0 3.2 0.00 0.00 0.00 87 1014.2
20260508081348 24 292 0.0 3.2 0.00 0.00 0.00 87 1014.4
20260508080846 24 0 0.0 0.0 0.00 0.00 0.00 87 1014.3
20260508080343 24 26 0.0 1.6 0.00 0.00 0.00 86 1014.3
20260508075840 24 342 0.0 3.2 0.00 0.00 0.00 86 1014.4
20260508075337 24 270 0.0 3.2 0.00 0.00 0.00 86 1014.3
20260508074835 24 14 0.0 3.2 0.00 0.00 0.00 86 1014.1
20260508074331 24 312 0.0 3.2 0.00 0.00 0.00 86 1014.4
20260508073828 24 7 1.6 6.4 0.00 0.00 0.00 86 1014.5
20260508073326 25 7 1.6 4.8 0.00 0.00 0.00 86 1014.4
20260508072822 25 340 1.6 6.4 0.00 0.00 0.00 86 1014.4
20260508072319 24 285 0.0 3.2 0.00 0.00 0.00 86 1014.4
20260508071816 25 339 3.2 3.2 0.00 0.00 0.00 86 1014.5
20260508071315 25 34 3.2 3.2 0.00 0.00 0.00 85 1014.4
20260508070812 25 66 1.6 3.2 0.00 0.00 0.00 85 1014.7
20260508070310 25 286 0.0 3.2 0.00 0.00 0.00 85 1014.5
20260508065807 25 0 0.0 6.4 0.00 0.00 0.00 85 1014.8
20260508065307 25 308 3.2 4.8 0.00 0.00 0.00 85 1014.9
20260508064803 25 303 3.2 3.2 0.00 0.00 0.00 85 1014.8
20260508064300 25 20 0.0 3.2 0.00 0.00 0.00 85 1014.7
20260508063757 25 346 1.6 3.2 0.00 0.00 0.00 85 1015.0
20260508063256 25 109 0.0 4.8 0.00 0.00 0.00 85 1014.9
20260508062752 25 331 0.0 6.4 0.00 0.00 0.00 85 1014.9
20260508062250 25 294 0.0 4.8 0.00 0.00 0.00 85 1014.7
20260508061747 25 340 0.0 3.2 0.00 0.00 0.00 84 1015.0
20260508061244 25 160 0.0 3.2 0.00 0.00 0.00 84 1014.9
20260508060740 25 344 3.2 4.8 0.00 0.00 0.00 84 1014.9
20260508060239 25 292 4.8 4.8 0.00 0.00 0.00 84 1015.0
20260508055733 25 26 4.8 4.8 0.00 0.00 0.00 84 1014.8
20260508055231 25 331 3.2 4.8 0.00 0.00 0.00 84 1015.1
20260508054727 25 90 1.6 3.2 0.00 0.00 0.00 83 1015.0
20260508054226 25 351 3.2 3.2 0.00 0.00 0.00 83 1015.1
20260508053722 25 246 0.0 4.8 0.00 0.00 0.00 83 1015.1
20260508053220 25 74 0.0 1.6 0.00 0.00 0.00 83 1015.2
20260508052717 25 75 1.6 4.8 0.00 0.00 0.00 83 1015.1
20260508052214 25 49 0.0 3.2 0.00 0.00 0.00 83 1015.0
20260508051710 25 90 0.0 0.0 0.00 0.00 0.00 83 1015.0
20260508051205 25 106 0.0 1.6 0.00 0.00 0.00 82 1014.8
20260508050702 25 90 0.0 1.6 0.00 0.00 0.00 82 1015.1
20260508050200 25 172 3.2 4.8 0.00 0.00 0.00 82 1015.1
20260508045654 25 354 0.0 3.2 0.00 0.00 0.00 82 1015.1
20260508045153 25 66 0.0 3.2 0.00 0.00 0.00 82 1015.2
20260508044650 25 327 4.8 6.4 0.00 0.00 0.00 82 1015.1
20260508044146 25 55 3.2 4.8 0.00 0.00 0.00 81 1015.3
20260508043642 25 55 0.0 0.0 0.00 0.00 0.00 81 1014.9
20260508043140 25 79 3.2 4.8 0.00 0.00 0.00 81 1015.0
20260508042637 25 12 0.0 3.2 0.00 0.00 0.00 80 1015.0
20260508042134 25 299 4.8 9.7 0.00 0.00 0.00 80 1015.0
20260508041630 25 297 1.6 6.4 0.00 0.00 0.00 80 1014.9
20260508041127 25 338 0.0 8.0 0.00 0.00 0.00 80 1015.1
20260508040623 25 325 6.4 6.4 0.00 0.00 0.00 80 1015.0
20260508040121 25 173 0.0 6.4 0.00 0.00 0.00 79 1015.0
20260508035618 26 26 1.6 6.4 0.00 0.00 0.00 79 1014.9
20260508035115 26 173 3.2 4.8 0.00 0.00 0.00 79 1014.9
20260508034612 26 312 3.2 6.4 0.00 0.00 0.00 78 1015.0
20260508034109 26 300 0.0 14.5 0.00 0.00 0.00 78 1014.9
20260508033607 26 342 0.0 9.7 0.00 0.00 0.00 77 1014.8
20260508033105 26 37 3.2 3.2 0.00 0.00 0.00 77 1015.1
20260508032601 26 11 0.0 6.4 0.00 0.00 0.00 76 1014.9
20260508032059 26 282 0.0 6.4 0.00 0.00 0.00 76 1014.7
20260508031556 26 243 0.0 9.7 0.00 0.00 0.00 75 1014.9
20260508031051 26 29 3.2 3.2 0.00 0.00 0.00 75 1014.7
20260508030548 26 337 4.8 4.8 0.00 0.00 0.00 74 1014.7
20260508030046 26 307 0.0 6.4 0.00 0.00 0.00 74 1014.4
20260508025542 26 60 0.0 4.8 0.00 0.00 0.00 74 1014.6
20260508025039 26 304 0.0 9.7 0.00 0.00 0.00 74 1014.3
20260508024535 27 169 0.0 6.4 0.00 0.00 0.00 74 1014.4
20260508024032 27 331 1.6 4.8 0.00 0.00 0.00 74 1014.4
20260508023529 27 357 4.8 4.8 0.00 0.00 0.00 73 1014.4
20260508023026 27 290 3.2 9.7 0.00 0.00 0.00 73 1014.7
20260508022522 27 8 3.2 9.7 0.00 0.00 0.00 72 1014.4
20260508022019 27 0 0.0 3.2 0.00 0.00 0.00 72 1014.5
20260508021515 27 7 1.6 6.4 0.00 0.00 0.00 71 1014.5
20260508021011 27 33 4.8 9.7 0.00 0.00 0.00 71 1014.5
20260508020509 27 74 1.6 6.4 0.00 0.00 0.00 70 1014.4
20260508020006 27 319 3.2 9.7 0.00 0.00 0.00 70 1014.1
20260508015504 27 337 0.0 4.8 0.00 0.00 0.00 69 1014.3
20260508015000 27 23 0.0 4.8 0.00 0.00 0.00 68 1014.2
20260508014457 27 303 11.3 11.3 0.00 0.00 0.00 68 1014.0
20260508013953 28 345 3.2 8.0 0.00 0.00 0.00 67 1014.2
20260508013449 28 323 9.7 9.7 0.00 0.00 0.00 66 1014.2
20260508012947 28 332 4.8 4.8 0.00 0.00 0.00 66 1014.1
20260508012443 28 335 4.8 8.0 0.00 0.00 0.00 65 1014.0
20260508011941 28 345 0.0 4.8 0.00 0.00 0.00 65 1014.0
20260508011438 28 349 3.2 6.4 0.00 0.00 0.00 65 1013.8
20260508010936 28 341 4.8 4.8 0.00 0.00 0.00 64 1013.8
20260508010433 28 90 0.0 1.6 0.00 0.00 0.00 64 1013.4
20260508005930 28 180 0.0 3.2 0.00 0.00 0.00 64 1013.2
20260508005427 28 351 3.2 4.8 0.00 0.00 0.00 63 1013.6
20260508004923 28 23 0.0 3.2 0.00 0.00 0.00 62 1013.3
20260508004419 28 334 0.0 4.8 0.00 0.00 0.00 62 1013.3
20260508003916 29 105 1.6 3.2 0.00 0.00 0.00 61 1013.2
20260508003413 29 353 3.2 4.8 0.00 0.00 0.00 60 1013.4
20260508002910 29 53 0.0 4.8 0.00 0.00 0.00 60 1013.1
20260508002407 29 334 3.2 8.0 0.00 0.00 0.00 60 1013.2
20260508001903 29 198 3.2 4.8 0.00 0.00 0.00 59 1013.1
20260508001359 29 85 0.0 3.2 0.00 0.00 0.00 58 1013.1
20260508000856 30 19 0.0 6.4 0.00 0.00 0.00 58 1013.3
20260508000352 30 125 3.2 3.2 0.00 0.00 0.00 58 1013.2
20260507235848 30 251 0.0 6.4 0.00 0.00 0.00 57 1013.2
20260507235346 30 71 0.0 4.8 0.00 0.00 0.00 57 1013.6
20260507234843 30 38 0.0 4.8 0.00 0.00 0.00 56 1013.2
20260507234339 30 45 0.0 4.8 0.00 0.00 0.00 56 1013.2
20260507233836 30 321 4.8 6.4 0.00 0.00 0.00 56 1013.2
20260507233334 30 323 4.8 6.4 0.00 0.00 0.00 56 1013.1
20260507232832 30 354 4.8 4.8 0.00 0.00 0.00 55 1013.1
20260507232328 30 151 4.8 4.8 0.00 0.00 0.00 54 1012.8
20260507231825 30 330 3.2 11.3 0.00 0.00 0.00 54 1013.0
20260507231322 30 0 3.2 6.4 0.00 0.00 0.00 53 1013.0
20260507230818 30 23 4.8 4.8 0.00 0.00 0.00 53 1013.1
20260507230316 30 358 6.4 8.0 0.00 0.00 0.00 52 1012.9
20260507225815 30 106 0.0 6.4 0.00 0.00 0.00 53 1012.7
20260507225312 30 132 3.2 6.4 0.00 0.00 0.00 52 1012.7
20260507224808 30 150 3.2 8.0 0.00 0.00 0.00 51 1012.6
20260507224305 31 62 6.4 11.3 0.00 0.00 0.00 51 1012.5
20260507223801 31 90 0.0 9.7 0.00 0.00 0.00 51 1012.6
20260507223257 31 100 6.4 8.0 0.00 0.00 0.00 51 1012.6
20260507222754 31 206 3.2 9.7 0.00 0.00 0.00 52 1012.6
20260507222250 31 90 1.6 8.0 0.00 0.00 0.00 52 1012.6
20260507221748 31 150 8.0 8.0 0.00 0.00 0.00 53 1012.6
20260507221244 31 180 3.2 14.5 0.00 0.00 0.00 53 1012.5
20260507220740 31 297 4.8 9.7 0.00 0.00 0.00 53 1012.5
20260507220239 32 55 4.8 6.4 0.00 0.00 0.00 53 1012.6
20260507215734 32 63 1.6 4.8 0.00 0.00 0.00 53 1012.8
20260507215232 32 246 0.0 4.8 0.00 0.00 0.00 53 1012.7
20260507214729 31 7 1.6 8.0 0.00 0.00 0.00 54 1012.3
20260507214226 32 250 3.2 4.8 0.00 0.00 0.00 54 1012.1
20260507213721 31 187 3.2 6.4 0.00 0.00 0.00 54 1012.6
20260507213219 31 292 0.0 11.3 0.00 0.00 0.00 56 1012.6
20260507212715 30 5 0.0 4.8 0.00 0.00 0.00 57 1012.4
20260507212212 30 106 1.6 8.0 0.00 0.00 0.00 59 1012.4
20260507211709 30 95 3.2 8.0 0.00 0.00 0.00 58 1012.0
20260507211204 30 98 0.0 6.4 0.00 0.00 0.00 58 1011.8
20260507210702 30 176 0.0 4.8 0.00 0.00 0.00 58 1011.9
20260507210158 29 150 3.2 8.0 0.00 0.00 0.00 58 1012.4
20260507205655 29 140 3.2 8.0 0.00 0.00 0.00 57 1012.6
20260507205152 29 74 0.0 8.0 0.00 0.00 0.00 58 1012.9
20260507204648 28 349 6.4 9.7 0.00 0.00 0.00 58 1013.2
20260507204146 28 90 1.6 4.8 0.00 0.00 0.00 60 1013.4
20260507203644 28 357 4.8 9.7 0.00 0.00 0.00 60 1013.4
20260507203141 28 201 4.8 12.9 0.00 0.00 0.00 61 1013.9
20260507202636 28 186 0.0 8.0 0.00 0.00 0.00 62 1013.9
20260507202133 28 115 3.2 4.8 0.00 0.00 0.00 62 1014.0
20260507201628 28 63 1.6 4.8 0.00 0.00 0.00 62 1014.1
20260507201125 28 164 3.2 11.3 0.00 0.00 0.00 62 1014.0
20260507200621 29 337 4.8 8.0 0.00 0.00 0.00 62 1014.2
20260507200117 28 12 3.2 6.4 0.00 0.00 0.00 63 1014.2
20260507195614 28 157 4.8 4.8 0.00 0.00 0.00 63 1014.4
20260507195111 28 353 4.8 8.0 0.00 0.00 0.00 63 1014.4
20260507194608 29 48 3.2 16.1 0.00 0.00 0.00 62 1014.5
20260507194103 29 147 4.8 6.4 0.00 0.00 0.00 62 1014.4
20260507193601 29 188 4.8 8.0 0.00 0.00 0.00 62 1014.1
20260507193058 29 163 0.0 8.0 0.00 0.00 0.00 61 1014.6
20260507192554 28 127 4.8 8.0 0.00 0.00 0.00 62 1014.3
20260507192051 29 199 4.8 11.3 0.00 0.00 0.00 62 1014.7
20260507191546 29 227 4.8 11.3 0.00 0.00 0.00 62 1014.6
20260507191044 29 313 4.8 11.3 0.00 0.00 0.00 62 1014.8
20260507190541 29 0 3.2 9.7 0.00 0.00 0.00 63 1014.8
20260507190039 29 346 8.0 11.3 0.00 0.00 0.00 63 1015.2
20260507185537 29 347 4.8 14.5 0.00 0.00 0.00 63 1015.5
20260507185033 29 341 9.7 9.7 0.00 0.00 0.00 63 1015.6
20260507184532 28 333 6.4 9.7 0.00 0.00 0.00 66 1015.7
20260507184030 28 278 4.8 9.7 0.00 0.00 0.00 66 1015.9
20260507183525 28 5 4.8 14.5 0.00 0.00 0.00 64 1015.9
20260507183023 29 0 6.4 9.7 0.00 0.00 0.00 63 1015.9
20260507182519 28 351 6.4 22.5 0.00 0.00 0.00 64 1016.0
20260507182015 28 10 4.8 9.7 0.00 0.00 0.00 65 1016.1
20260507181512 29 12 19.3 19.3 0.00 0.00 0.00 64 1016.2
20260507181008 29 283 3.2 11.3 0.00 0.00 0.00 65 1016.0
20260507180504 28 33 8.0 14.5 0.00 0.00 0.00 65 1016.2
20260507180001 28 16 4.8 12.9 0.00 0.00 0.00 65 1016.3
20260507175457 28 5 3.2 8.0 0.00 0.00 0.00 65 1016.3
20260507174955 27 345 6.4 12.9 0.00 0.00 0.00 66 1016.2
20260507174452 28 19 8.0 8.0 0.00 0.00 0.00 66 1016.6
20260507173950 27 345 6.4 8.0 0.00 0.00 0.00 66 1016.5
20260507173447 27 328 8.0 11.3 0.00 0.00 0.00 66 1016.9
20260507172943 27 319 3.2 9.7 0.00 0.00 0.00 67 1016.7
20260507172440 28 4 9.7 14.5 0.00 0.00 0.00 65 1016.7
20260507171937 28 19 4.8 12.9 0.00 0.00 0.00 64 1016.8
20260507171432 29 4 3.2 8.0 0.00 0.00 0.00 61 1016.4
20260507170930 29 0 1.6 11.3 0.00 0.00 0.00 59 1016.6
20260507170426 30 334 4.8 11.3 0.00 0.00 0.00 57 1016.5
20260507165923 30 36 4.8 8.0 0.00 0.00 0.00 54 1016.5
20260507165419 29 10 8.0 14.5 0.00 0.00 0.00 55 1016.7
20260507164914 30 326 9.7 14.5 0.00 0.00 0.00 54 1016.7
20260507164412 30 6 4.8 12.9 0.00 0.00 0.00 53 1016.8
20260507163909 30 36 8.0 9.7 0.00 0.00 0.00 54 1016.7
20260507163406 29 7 8.0 11.3 0.00 0.00 0.00 54 1016.5
20260507162903 29 0 4.8 9.7 0.00 0.00 0.00 54 1016.7
20260507162358 29 4 9.7 12.9 0.00 0.00 0.00 54 1017.1
20260507161856 29 340 4.8 12.9 0.00 0.00 0.00 54 1016.7
20260507161352 29 356 3.2 17.7 0.00 0.00 0.00 55 1017.1
20260507160849 29 56 3.2 16.1 0.00 0.00 0.00 55 1017.1
20260507160344 30 9 11.3 16.1 0.00 0.00 0.00 55 1017.0
20260507155841 29 63 0.0 14.5 0.00 0.00 0.00 56 1016.9
20260507155336 29 287 11.3 11.3 0.00 0.00 0.00 58 1016.9
20260507154833 28 358 6.4 8.0 0.00 0.00 0.00 59 1017.2
20260507154331 28 5 3.2 12.9 0.00 0.00 0.00 60 1017.3
20260507153828 28 7 0.0 11.3 0.00 0.00 0.00 63 1017.3
20260507153324 27 308 9.7 11.3 0.00 0.00 0.00 64 1017.6
20260507152821 28 50 4.8 12.9 0.00 0.00 0.00 64 1017.4
20260507152317 27 356 3.2 9.7 0.00 0.00 0.00 65 1017.2
20260507151813 27 258 4.8 8.0 0.00 0.00 0.00 67 1017.2
20260507151309 27 174 4.8 4.8 0.00 0.00 0.00 68 1016.6
20260507150806 27 174 0.0 3.2 0.00 0.00 0.00 68 1016.8
20260507150303 27 180 4.8 4.8 0.00 0.00 0.00 68 1016.7
20260507145759 27 4 3.2 4.8 0.00 0.00 0.00 68 1016.6
20260507145256 27 0 1.6 4.8 0.00 0.00 0.00 69 1016.5
20260507144753 26 40 0.0 8.0 0.00 0.00 0.00 70 1016.3
20260507144250 26 144 4.8 4.8 0.00 0.00 0.00 70 1016.2
20260507143746 26 180 0.0 3.2 0.00 0.00 0.00 72 1016.3
20260507143244 26 171 0.0 4.8 0.00 0.00 0.00 72 1016.1
20260507142740 26 75 0.0 4.8 0.00 0.00 0.00 72 1016.0
20260507142237 26 90 0.0 4.8 0.00 0.00 0.00 73 1016.0
20260507141733 25 170 0.0 6.4 0.00 0.00 0.00 73 1016.1
20260507141230 25 90 0.0 4.8 0.00 0.00 0.00 73 1016.3
20260507140726 25 118 6.4 6.4 0.00 0.00 0.00 74 1016.4
20260507140224 25 183 4.8 4.8 0.00 0.00 0.00 75 1016.5
20260507135721 25 176 0.0 6.4 0.00 0.00 0.00 75 1016.3
20260507135218 25 200 4.8 4.8 0.00 0.00 0.00 76 1016.3
20260507134714 25 0 3.2 6.4 0.00 0.00 0.00 76 1016.3
20260507134211 25 286 1.6 4.8 0.00 0.00 0.00 77 1016.4
20260507133707 25 172 0.0 4.8 0.00 0.00 0.00 77 1016.4
20260507133204 24 23 0.0 6.4 0.00 0.00 0.00 78 1016.6
20260507132701 24 29 0.0 3.2 0.00 0.00 0.00 78 1016.5
20260507132157 23 135 4.8 4.8 0.00 0.00 0.00 79 1016.5
20260507131654 23 281 0.0 3.2 0.00 0.00 0.00 79 1016.4
20260507131152 23 294 0.0 3.2 0.00 0.00 0.00 80 1016.5
20260507130648 23 106 0.0 1.6 0.00 0.00 0.00 80 1016.3
20260507130146 23 81 0.0 3.2 0.00 0.00 0.00 80 1016.5
20260507125644 23 180 0.0 3.2 0.00 0.00 0.00 80 1016.5
20260507125142 23 257 1.6 3.2 0.00 0.00 0.00 80 1016.8
20260507124638 23 75 0.0 1.6 0.00 0.00 0.00 81 1016.7
20260507124136 22 292 3.2 3.2 0.00 0.00 0.00 81 1016.7
20260507123634 22 306 1.6 8.0 0.00 0.00 0.00 80 1016.8
20260507123131 23 82 1.6 4.8 0.00 0.00 0.00 81 1016.9
20260507122626 23 283 0.0 4.8 0.00 0.00 0.00 81 1016.7
20260507122122 22 325 0.0 4.8 0.00 0.00 0.00 81 1016.7
20260507121618 22 279 0.0 4.8 0.00 0.00 0.00 82 1016.6
20260507121114 23 84 0.0 4.8 0.00 0.00 0.00 82 1016.6
20260507120610 23 345 1.6 3.2 0.00 0.00 0.00 83 1016.5
20260507120107 22 285 0.0 3.2 0.00 0.00 0.00 83 1016.6
20260507115603 22 289 1.6 3.2 0.00 0.00 0.00 83 1016.2
20260507115059 22 255 0.0 0.0 0.00 0.00 0.00 83 1016.0
20260507114555 22 254 0.0 3.2 0.00 0.00 0.00 83 1016.1
20260507114053 22 286 0.0 6.4 0.00 0.00 0.00 83 1016.1
20260507113549 22 243 0.0 0.0 0.00 0.00 0.00 84 1015.9
20260507113047 22 234 0.0 4.8 0.00 0.00 0.00 83 1015.7
20260507112545 22 194 0.0 3.2 0.00 0.00 0.00 83 1015.9
20260507112041 22 110 0.0 4.8 0.00 0.00 0.00 83 1015.9
20260507111538 22 263 0.0 3.2 0.00 0.00 0.00 83 1016.0
20260507111035 22 294 0.0 3.2 0.00 0.00 0.00 83 1015.9
20260507110531 22 106 0.0 6.4 0.00 0.00 0.00 83 1016.1
20260507110028 22 180 0.0 1.6 0.00 0.00 0.00 83 1015.6
20260507105525 22 180 0.0 4.8 0.00 0.00 0.00 84 1016.0
20260507105020 22 175 3.2 3.2 0.00 0.00 0.00 84 1015.9
20260507104518 21 180 0.0 3.2 0.00 0.00 0.00 84 1015.9
20260507104015 21 173 0.0 0.0 0.00 0.00 0.00 84 1015.7
20260507103511 21 180 0.0 0.0 0.00 0.00 0.00 84 1015.8
20260507103007 21 180 0.0 0.0 0.00 0.00 0.00 84 1015.8
20260507102504 21 180 0.0 0.0 0.00 0.00 0.00 84 1016.0
20260507102000 21 180 0.0 1.6 0.00 0.00 0.00 84 1015.9
20260507101455 22 180 0.0 0.0 0.00 0.00 0.00 84 1015.9
20260507100952 22 180 0.0 0.0 0.00 0.00 0.00 84 1016.0